Regional Weather Roundup
Issued by NWS

Home | Current Version | Previous Version | Text Only | Print | Product List | Glossary On
Versions: 1 2 3 4 5 6 7 8 9 10 11 12 13 14 15 16 17 18 19 20 21 22 23 24 25 26 27 28 29 30 31 32 33 34 35 36 37 38 39 40 41 42 43 44 45 46 47 48 49 50
000
ASUS43 KLSX 202307
RWRMO

WEATHER SUMMARY FOR MISSOURI
NATIONAL WEATHER SERVICE SPRINGFIELD MO
500 PM CST THU NOV 20 2014

NOTE: "FAIR" INDICATES FEW OR NO CLOUDS BELOW 12,000 FEET WITH NO
       SIGNIFICANT WEATHER AND/OR OBSTRUCTIONS TO VISIBILITY.
       CURRENT SKY AND/OR WEATHER CONDITIONS ARE NOT AVAILABLE FOR
       CHILLICOTHE AND FARMINGTON.

MOZ001>031-035>038-043-044-053-054-210000-
...NORTHERN AND WESTERN MISSOURI...

CITY           SKY/WX    TMP DP  RH WIND       PRES   REMARKS
KANSAS CTY INT PTCLDY    34  18  52 NE7       30.20R WCI  28
KANSAS C DTWN  CLEAR     36  18  48 E7        30.20R
LEE`S SUMMIT   CLEAR     37  18  46 NE3       30.19S
ST JOSEPH      CLEAR     30  17  58 NE8       30.23R WCI  22
CHILLICOTHE      N/A     32  17  54 N3        30.24R
KIRKSVILLE     CLEAR     29  15  56 NW3       30.22R

$$
MOZ066>068-077>081-088>096-101>105-210000-
...SOUTHWEST MISSOURI...

CITY           SKY/WX    TMP DP  RH WIND       PRES   REMARKS
SPRINGFIELD    CLEAR     45  23  42 NE10      30.13R
JOPLIN         CLEAR     45  25  45 NE12      30.12S

$$
MOZ032>034-039>042-045>050-055>058-069>072-210000-
...CENTRAL MISSOURI...

CITY           SKY/WX    TMP DP  RH WIND       PRES   REMARKS
COLUMBIA       CLEAR     32  18  56 N7        30.20R WCI  26
JEFFERSON CITY CLEAR     39  19  44 NW3       30.21S
ROLLA          CLEAR     37  21  52 CALM      30.17S
SEDALIA        CLEAR     37  18  46 N5        30.21R
WHITEMAN AFB   CLEAR     35  18  49 NE3       30.20R
WARRENSBURG    CLEAR     36  19  51 CALM      30.20S
OSAGE BEACH    CLEAR     39  19  45 NE6       30.19R

$$
MOZ051-052-059>065-210000-
...EAST CENTRAL MISSOURI...

CITY           SKY/WX    TMP DP  RH WIND       PRES   REMARKS
ST LOUIS INTL  PTCLDY    34  18  52 NW5       30.22S WCI  30
SPIRIT OF STL  PTCLDY    31  20  63 CALM      30.22R
ST CHARLES     CLEAR     33  19  56 CALM      30.23R

$$
MOZ072>076-082>087-097>100-106>115-210000-
...SOUTH CENTRAL AND SOUTHEAST MISSOURI...

CITY           SKY/WX    TMP DP  RH WIND       PRES   REMARKS
CAPE GIRARDEAU CLEAR     39  25  57 SE5       30.22S
FARMINGTON     CLEAR     41  21  45 CALM      30.20S
POPLAR BLUFF   PTCLDY    40  24  53 SE5       30.21R
WEST PLAINS    CLOUDY    46  21  37 SE3       30.17R

$$



USA.gov is the U.S. government's official web portal to all federal, state and local government web resources and services.